Location: Newark
(27.9675°N, 86.8869°E)
Time: 04:26:27
(UTC+00:00)

LightSail 2 - Visible Passes

Search period start: 22 September 2019 00:00
Search period end: 02 October 2019 00:00
Orbit: 701 x 730 km, 24.0° (Epoch: 21 September)

Date Brightness Start Highest point End Pass type
(mag) Time Alt. Az. Time Alt. Az. Time Alt. Az.
22 Sep 6.2 21:57:31 34° SSE 21:57:31 34° SSE 22:01:30 10° E visible
22 Sep 5.6 23:37:14 10° WSW 23:42:11 54° S 23:47:10 10° E visible
23 Sep 8.0 21:03:50 11° ESE 21:03:50 11° ESE 21:04:06 10° ESE visible
23 Sep 5.5 22:42:52 31° SW 22:44:59 51° S 22:49:55 10° E visible
24 Sep 6.3 21:49:10 36° SE 21:49:10 36° SE 21:52:38 10° E visible
24 Sep 5.5 23:28:12 10° W 23:33:09 55° S 23:38:07 10° ESE visible
25 Sep 5.4 22:34:30 41° SW 22:35:56 55° S 22:40:54 10° ESE visible
26 Sep 6.6 21:40:47 32° ESE 21:40:47 32° ESE 21:43:38 10° E visible
26 Sep 5.6 23:19:49 13° W 23:24:04 49° S 23:28:57 10° ESE visible
27 Sep 5.3 22:26:07 49° SW 22:26:49 53° S 22:31:46 10° ESE visible
28 Sep 7.0 21:32:26 24° ESE 21:32:26 24° ESE 21:34:32 10° ESE visible
28 Sep 5.9 23:11:27 17° WSW 23:14:54 39° SSW 23:19:36 10° SE visible
29 Sep 5.6 22:17:47 45° S 22:17:47 45° S 22:22:29 10° ESE visible
30 Sep 7.5 21:24:08 17° ESE 21:24:08 17° ESE 21:25:18 10° ESE visible
30 Sep 6.3 23:03:10 19° WSW 23:05:38 28° SSW 23:09:58 10° SE visible
01 Oct 6.3 22:09:33 31° SSE 22:09:33 31° SSE 22:13:00 10° SE visible
